TimeCDT,TemperatureF,Dew PointF,Humidity,Sea Level PressureIn,VisibilityMPH,Wind Direction,Wind SpeedMPH,Gust SpeedMPH,PrecipitationIn,Events,Conditions,WindDirDegrees,DateUTC
12:52 AM,75.9,63.0,64,29.93,10.0,SE,3.5,-,N/A,,Partly Cloudy,140,2013-06-15 05:52:00
1:52 AM,75.9,63.0,64,29.92,10.0,Calm,Calm,-,N/A,,Mostly Cloudy,0,2013-06-15 06:52:00
2:52 AM,75.0,66.0,73,29.91,10.0,Calm,Calm,-,0.01,Rain,Light Rain,0,2013-06-15 07:52:00
3:38 AM,71.6,68.0,88,29.99,1.8,SSW,6.9,-,0.06,Rain,Heavy Rain,210,2013-06-15 08:38:00
3:50 AM,73.4,69.8,88,29.98,4.0,SSW,5.8,-,0.29,Rain,Light Rain,210,2013-06-15 08:50:00
3:52 AM,73.0,69.1,87,29.91,8.0,North,-9999.0,-,0.29,Rain,Light Rain,0,2013-06-15 08:52:00
4:46 AM,71.6,69.8,94,30.00,1.8,SSE,19.6,29.9,0.15,Rain,Heavy Rain,160,2013-06-15 09:46:00
4:52 AM,71.1,68.0,90,29.91,1.5,South,3.5,29.9,0.32,Rain,Heavy Rain,190,2013-06-15 09:52:00
4:56 AM,71.6,68.0,88,29.99,3.0,South,3.5,-,0.01,Rain,Light Rain,170,2013-06-15 09:56:00
5:04 AM,71.6,68.0,88,29.99,10.0,NE,4.6,-,0.02,Rain,Light Rain,50,2013-06-15 10:04:00
5:52 AM,70.0,70.0,100,29.91,8.0,Calm,Calm,-,0.03,Rain,Light Rain,0,2013-06-15 10:52:00
6:16 AM,69.8,69.8,100,30.00,10.0,Calm,Calm,-,0.00,,Overcast,0,2013-06-15 11:16:00
6:52 AM,71.1,71.1,100,29.96,10.0,South,16.1,-,0.00,Rain,Light Rain,170,2013-06-15 11:52:00
7:31 AM,71.6,69.8,94,30.02,10.0,SSE,3.5,-,0.00,Rain,Light Rain,160,2013-06-15 12:31:00
7:52 AM,71.1,70.0,96,29.95,10.0,South,3.5,-,0.00,,Overcast,180,2013-06-15 12:52:00
8:52 AM,71.1,70.0,96,29.97,10.0,SW,5.8,-,N/A,,Mostly Cloudy,230,2013-06-15 13:52:00
9:52 AM,73.0,70.0,90,29.98,10.0,South,5.8,-,N/A,,Overcast,170,2013-06-15 14:52:00
10:52 AM,75.9,68.0,76,29.97,10.0,South,6.9,-,N/A,,Overcast,190,2013-06-15 15:52:00
11:52 AM,79.0,68.0,69,29.98,10.0,SSW,11.5,20.7,N/A,,Overcast,200,2013-06-15 16:52:00
12:52 PM,75.9,66.9,74,29.98,10.0,South,13.8,-,N/A,,Overcast,190,2013-06-15 17:52:00
1:52 PM,75.9,64.0,67,29.96,10.0,South,11.5,-,N/A,,Overcast,170,2013-06-15 18:52:00
2:52 PM,78.1,64.9,64,29.95,10.0,SSE,13.8,-,0.00,Rain,Light Rain,150,2013-06-15 19:52:00
3:52 PM,78.1,66.9,68,29.92,10.0,SSE,15.0,-,N/A,,Overcast,160,2013-06-15 20:52:00
4:52 PM,82.9,68.0,60,29.89,10.0,SSE,15.0,23.0,N/A,,Clear,150,2013-06-15 21:52:00
5:52 PM,84.9,66.9,55,29.87,10.0,South,13.8,-,N/A,,Partly Cloudy,180,2013-06-15 22:52:00
6:52 PM,84.9,66.9,55,29.85,10.0,South,16.1,21.9,N/A,,Partly Cloudy,190,2013-06-15 23:52:00
7:52 PM,84.0,66.9,56,29.85,10.0,South,11.5,20.7,N/A,,Clear,170,2013-06-16 00:52:00
8:52 PM,82.0,66.9,60,29.86,10.0,South,6.9,-,N/A,,Clear,170,2013-06-16 01:52:00
9:52 PM,78.1,66.9,68,29.88,10.0,SSE,4.6,-,N/A,,Clear,150,2013-06-16 02:52:00
10:52 PM,75.9,68.0,76,29.91,10.0,SSE,6.9,-,N/A,,Clear,150,2013-06-16 03:52:00
11:52 PM,75.0,66.9,76,29.91,10.0,SE,9.2,-,N/A,,Clear,140,2013-06-16 04:52:00